This is the latest recevied weather packets stored in our database for station/object N5CSU. If no packets are shown the sender has not sent any weather packets the latest 10 day(s).
| Time | Temp. | Humidity | Pressure | Rain* | Wind** | Luminosity | Snow |
|---|---|---|---|---|---|---|---|
| 1778031949 | 22.22° C | 88% | 1006.3 hPa | 0 mm | - | 0 W/m² | - |
| 1778031644 | 22.78° C | 88% | 1006 hPa | 0 mm | - | 0 W/m² | - |
| 1778031343 | 22.78° C | 88% | 1006 hPa | 0 mm | - | 0 W/m² | - |
| 1778031039 | 23.33° C | 92% | 1005.7 hPa | 0 mm | - | 0 W/m² | - |
| 1778030735 | 23.89° C | 94% | 1006 hPa | 0 mm | - | 0 W/m² | - |
| 1778030432 | 23.89° C | 95% | 1006.1 hPa | 0 mm | - | 0 W/m² | - |
| 1778030130 | 24.44° C | 95% | 1005.9 hPa | 0 mm | - | 0 W/m² | - |
| 1778029825 | 24.44° C | 95% | 1005.5 hPa | 0 mm | - | 0 W/m² | - |
| 1778029525 | 24.44° C | 94% | 1005.5 hPa | 0 mm | - | 0 W/m² | - |
| 1778029221 | 24.44° C | 94% | 1005.1 hPa | 0 mm | - | 0 W/m² | - |
| 1778028919 | 24.44° C | 93% | 1005.2 hPa | 0 mm | - | 0 W/m² | - |
| 1778028614 | 24.44° C | 93% | 1005.4 hPa | 0 mm | - | 0 W/m² | - |
| 1778028312 | 25° C | 93% | 1005.3 hPa | 0 mm | - | 0 W/m² | - |
| 1778028008 | 25° C | 92% | 1005.2 hPa | 0 mm | - | 1 W/m² | - |
| 1778027705 | 25° C | 92% | 1004.9 hPa | 0 mm | - | 1 W/m² | - |
| 1778027400 | 25.56° C | 91% | 1005.2 hPa | 0 mm | - | 1 W/m² | - |
| 1778027097 | 25.56° C | 90% | 1005 hPa | 0 mm | - | 1 W/m² | - |
| 1778026792 | 26.11° C | 88% | 1005.1 hPa | 0 mm | - | 1 W/m² | - |
| 1778026489 | 26.67° C | 87% | 1005.2 hPa | 0 mm | - | 1 W/m² | - |
| 1778026187 | 27.78° C | 83% | 1005 hPa | 0 mm | - | 1 W/m² | - |
| 1778025884 | 27.78° C | 78% | 1004.8 hPa | 0 mm | - | 1 W/m² | - |
| 1778025581 | 28.33° C | 75% | 1004.6 hPa | 0 mm | - | 1 W/m² | - |
| 1778025279 | 28.33° C | 75% | 1004.3 hPa | 0 mm | - | 2 W/m² | - |
| 1778024975 | 28.33° C | 74% | 1004.1 hPa | 0 mm | - | 3 W/m² | - |
| 1778024673 | 28.89° C | 73% | 1004.2 hPa | 0 mm | - | 4 W/m² | - |
* Rain latest hour (hover to see other rain measurements)
** Current wind speed in m/s (hover to see current wind gust speed)